Volver al catálogo

STARLINK-31503

ActivoComunicacionesVLEO
NORAD 59200·PAYLOAD·🇺🇸 United States

Lanzado Mar 10, 2024 desde Cape Canaveral Space Force Station

Loading…

Próximos Pases (próximas 24 horas)

TLE

ActualizadoSource: CelesTrak SupGP

Época: Sep 14, 2026, 21:24 UTC

1 59200C 24045Y   26257.89215278  .00002147  00000+0  77767-4 0  2573
2 59200  42.9996 103.9247 0001362 272.9073 265.6358 15.27570606    10

Sigue STARLINK-31503 en tiempo real con AllMySat

Download on the App Store